Tiempo cada hora Munkebo

Hoy, 27 Octubre, Martes

Tiempo Temperatura Precipitaciones Viento Presión Humedad
00:00 +7°C° 0 mm 6 mps 749 mmHg 87%
01:00 +7°C° 0 mm 6 mps 749 mmHg 88%
02:00 +6°C° 0 mm 7 mps 749 mmHg 88%
03:00 +6°C° 0 mm 7 mps 749 mmHg 88%
04:00 +6°C° 0 mm 7 mps 749 mmHg 88%
05:00 +6°C° 0 mm 8 mps 749 mmHg 88%
06:00 +7°C° 0 mm 8 mps 749 mmHg 87%
07:00 +7°C° 0 mm 8 mps 749 mmHg 87%
08:00 +7°C° 0 mm 8 mps 750 mmHg 85%
09:00 +8°C° 0 mm 9 mps 750 mmHg 82%
10:00 +8°C° 0 mm 9 mps 750 mmHg 80%
11:00 +8°C° 0 mm 9 mps 750 mmHg 79%
12:00 +8°C° 0 mm 9 mps 750 mmHg 78%
13:00 +8°C° 0 mm 9 mps 751 mmHg 78%
14:00 +8°C° 0 mm 9 mps 751 mmHg 78%
15:00 +8°C° 0 mm 9 mps 751 mmHg 78%
16:00 +8°C° 0 mm 9 mps 751 mmHg 78%
17:00 +9°C° 0 mm 8 mps 751 mmHg 79%
18:00 +7°C° 0 mm 8 mps 751 mmHg 79%
19:00 +7°C° 0 mm 8 mps 751 mmHg 80%
20:00 +9°C° 0 mm 8 mps 751 mmHg 80%
21:00 +9°C° 0 mm 8 mps 751 mmHg 80%
22:00 +9°C° 0 mm 8 mps 750 mmHg 79%
23:00 +9°C° 0 mm 8 mps 750 mmHg 80%

Mañana, 28 Octubre, Miércoles

Tiempo Temperatura Precipitaciones Viento Presión Humedad
00:00 +7°C° 0 mm 9 mps 750 mmHg 80%
01:00 +7°C° 0 mm 9 mps 750 mmHg 80%
02:00 +7°C° 0.2 mm 9 mps 749 mmHg 82%
03:00 +7°C° 0.2 mm 10 mps 749 mmHg 85%
04:00 +7°C° 0.2 mm 11 mps 748 mmHg 87%
05:00 +8°C° 0.7 mm 10 mps 748 mmHg 85%
06:00 +9°C° 0.7 mm 8 mps 749 mmHg 84%
07:00 +10°C° 0.7 mm 7 mps 749 mmHg 82%
08:00 +10°C° 0 mm 7 mps 749 mmHg 78%
09:00 +10°C° 0 mm 7 mps 750 mmHg 75%
10:00 +10°C° 0 mm 6 mps 751 mmHg 71%
11:00 +10°C° 0.1 mm 7 mps 751 mmHg 70%
12:00 +11°C° 0.1 mm 7 mps 751 mmHg 68%
13:00 +11°C° 0.1 mm 8 mps 752 mmHg 67%
14:00 +11°C° 0 mm 8 mps 752 mmHg 70%
15:00 +10°C° 0 mm 8 mps 752 mmHg 72%
16:00 +10°C° 0 mm 8 mps 752 mmHg 75%
17:00 +9°C° 0.1 mm 8 mps 752 mmHg 77%
18:00 +8°C° 0.1 mm 9 mps 752 mmHg 79%
19:00 +8°C° 0.1 mm 9 mps 752 mmHg 82%
20:00 +8°C° 0.3 mm 9 mps 752 mmHg 82%
21:00 +8°C° 0.3 mm 9 mps 752 mmHg 83%
22:00 +8°C° 0.3 mm 9 mps 752 mmHg 84%
23:00 +8°C° 0.1 mm 9 mps 752 mmHg 84%

Pasado mañana, 29 Octubre, Jueves

Tiempo Temperatura Precipitaciones Viento Presión Humedad
00:00 +9°C° 0.1 mm 8 mps 752 mmHg 85%
01:00 +7°C° 0.1 mm 8 mps 752 mmHg 86%
02:00 +8°C° 0.5 mm 7 mps 752 mmHg 87%
03:00 +8°C° 0.5 mm 7 mps 751 mmHg 88%
04:00 +8°C° 0.5 mm 7 mps 751 mmHg 89%
05:00 +8°C° 1 mm 7 mps 752 mmHg 88%
06:00 +8°C° 1 mm 7 mps 752 mmHg 86%
07:00 +8°C° 1 mm 7 mps 752 mmHg 85%
08:00 +9°C° 0.2 mm 7 mps 753 mmHg 81%
09:00 +9°C° 0.2 mm 7 mps 753 mmHg 77%
10:00 +9°C° 0.2 mm 7 mps 753 mmHg 74%
11:00 +10°C° 0.1 mm 7 mps 754 mmHg 74%
12:00 +10°C° 0.1 mm 8 mps 755 mmHg 74%
13:00 +10°C° 0.1 mm 8 mps 755 mmHg 74%
14:00 +10°C° 0.2 mm 8 mps 756 mmHg 75%
15:00 +10°C° 0.2 mm 8 mps 756 mmHg 77%
16:00 +10°C° 0.2 mm 7 mps 757 mmHg 78%
17:00 +9°C° 0.1 mm 8 mps 757 mmHg 80%
18:00 +9°C° 0.1 mm 8 mps 758 mmHg 81%
19:00 +9°C° 0.1 mm 8 mps 758 mmHg 83%
20:00 +7°C° 0 mm 8 mps 759 mmHg 83%
21:00 +7°C° 0 mm 8 mps 759 mmHg 84%
22:00 +7°C° 0 mm 8 mps 760 mmHg 84%
23:00 +8°C° 0 mm 7 mps 760 mmHg 84%

30 Octubre, Viernes

Tiempo Temperatura Precipitaciones Viento Presión Humedad
00:00 +8°C° 0 mm 7 mps 760 mmHg 85%
01:00 +8°C° 0 mm 6 mps 761 mmHg 85%
02:00 +8°C° 0 mm 6 mps 761 mmHg 85%
03:00 +8°C° 0 mm 5 mps 761 mmHg 85%
04:00 +8°C° 0 mm 5 mps 761 mmHg 85%
05:00 +8°C° 0.4 mm 5 mps 761 mmHg 88%
06:00 +8°C° 0.4 mm 6 mps 761 mmHg 91%
07:00 +8°C° 0.4 mm 6 mps 761 mmHg 95%
08:00 +8°C° 1.1 mm 6 mps 761 mmHg 95%
09:00 +9°C° 1.1 mm 6 mps 761 mmHg 96%
10:00 +9°C° 1.1 mm 6 mps 761 mmHg 97%
11:00 +9°C° 0.7 mm 5 mps 761 mmHg 96%
12:00 +11°C° 0.7 mm 4 mps 761 mmHg 96%
13:00 +12°C° 0.7 mm 4 mps 761 mmHg 96%
14:00 +12°C° 0.2 mm 4 mps 761 mmHg 96%
15:00 +12°C° 0.2 mm 4 mps 761 mmHg 96%
16:00 +12°C° 0.2 mm 3 mps 761 mmHg 96%
17:00 +12°C° 0.4 mm 4 mps 761 mmHg 96%
18:00 +12°C° 0.4 mm 5 mps 762 mmHg 96%
19:00 +12°C° 0.4 mm 5 mps 762 mmHg 96%
20:00 +12°C° 0.1 mm 5 mps 762 mmHg 96%
21:00 +12°C° 0.1 mm 5 mps 762 mmHg 96%
22:00 +13°C° 0.1 mm 5 mps 762 mmHg 95%
23:00 +13°C° 0 mm 5 mps 762 mmHg 95%

31 Octubre, Sábado

Tiempo Temperatura Precipitaciones Viento Presión Humedad
00:00 +13°C° 0 mm 5 mps 762 mmHg 95%
01:00 +13°C° 0 mm 5 mps 763 mmHg 95%
02:00 +12°C° 0 mm 5 mps 763 mmHg 95%
03:00 +12°C° 0 mm 4 mps 763 mmHg 95%
04:00 +12°C° 0 mm 4 mps 763 mmHg 95%
05:00 +11°C° 0 mm 4 mps 763 mmHg 95%
06:00 +11°C° 0 mm 4 mps 764 mmHg 95%
07:00 +10°C° 0 mm 4 mps 764 mmHg 96%
08:00 +11°C° 0 mm 4 mps 764 mmHg 94%
09:00 +12°C° 0 mm 3 mps 764 mmHg 92%
10:00 +13°C° 0 mm 3 mps 764 mmHg 89%
11:00 +13°C° 0 mm 3 mps 764 mmHg 87%
12:00 +14°C° 0 mm 3 mps 764 mmHg 84%
13:00 +14°C° 0 mm 3 mps 764 mmHg 81%
14:00 +14°C° 0 mm 3 mps 764 mmHg 85%
15:00 +14°C° 0 mm 4 mps 764 mmHg 89%
16:00 +14°C° 0 mm 4 mps 764 mmHg 93%
17:00 +13°C° 0 mm 5 mps 763 mmHg 94%
18:00 +13°C° 0 mm 5 mps 763 mmHg 94%
19:00 +13°C° 0 mm 6 mps 763 mmHg 95%
20:00 +13°C° 0 mm 6 mps 763 mmHg 93%
21:00 +13°C° 0 mm 6 mps 762 mmHg 91%
22:00 +12°C° 0 mm 7 mps 762 mmHg 90%
23:00 +12°C° 0 mm 7 mps 762 mmHg 90%

1 Noviembre, Domingo

Tiempo Temperatura Precipitaciones Viento Presión Humedad
00:00 +11°C° 0 mm 7 mps 761 mmHg 91%
01:00 +11°C° 0 mm 7 mps 761 mmHg 91%
02:00 +11°C° 0 mm 8 mps 760 mmHg 92%
03:00 +11°C° 0 mm 8 mps 760 mmHg 92%
04:00 +11°C° 0 mm 8 mps 760 mmHg 92%
05:00 +10°C° 0 mm 7 mps 760 mmHg 92%
06:00 +10°C° 0 mm 7 mps 760 mmHg 92%
07:00 +10°C° 0 mm 6 mps 760 mmHg 91%
08:00 +10°C° 0 mm 6 mps 760 mmHg 91%
09:00 +10°C° 0 mm 6 mps 760 mmHg 90%
10:00 +10°C° 0 mm 7 mps 760 mmHg 89%
11:00 +11°C° 0 mm 7 mps 760 mmHg 87%
12:00 +11°C° 0 mm 7 mps 761 mmHg 85%
13:00 +11°C° 0 mm 7 mps 761 mmHg 83%
14:00 +11°C° 0 mm 7 mps 760 mmHg 83%
15:00 +11°C° 0 mm 7 mps 760 mmHg 82%
16:00 +11°C° 0 mm 7 mps 760 mmHg 81%
17:00 +11°C° 0 mm 7 mps 760 mmHg 82%
18:00 +11°C° 0 mm 7 mps 760 mmHg 83%
19:00 +11°C° 0 mm 8 mps 760 mmHg 84%
20:00 +11°C° 0.1 mm 8 mps 759 mmHg 85%
21:00 +11°C° 0.1 mm 9 mps 759 mmHg 86%
22:00 +11°C° 0.1 mm 9 mps 759 mmHg 86%
23:00 +11°C° 0 mm 10 mps 759 mmHg 86%
Mostrar más

Necesitamos Su Consentimiento

Meteoprog y nuestros Proveedores de Servicios pueden almacenar y acceder a sus datos personales como cookies, identificadores de dispositivo u otras tecnologías similares de su dispositivo y procesar dichos datos para personalizar contenido y anuncios, además de ofrecer funciones de redes sociales y analizar el tráfico.

  • Almacenar y/o acceder a información en su dispositivo

    Se puede almacenar o acceder a cookies, identificadores de dispositivo u otra información de su dispositivo para los fines anteriormente indicados.

  • Anuncios y contenido personalizados, medición de anuncios y contenido, percepciones del público, y desarrollo de productos

    Los anuncios y el contenido pueden personalizarse en base a su perfil. Se pueden añadir más datos para personalizar mejor los anuncios y contenidos. Se puede medir el rendimiento de los anuncios y contenidos. Se puede obtener la percepción sobre el público que ha visto los anuncios y contenidos. Dichos datos pueden usarse para desarrollar o mejorar la experiencia del usuario, sistemas y software.

Al hacer clic en ‘Estoy De Acuerdo’ usted permitirá el uso de las cookies, identificadores de dispositivo, balizas web u otras tecnologías similares indicadas. Su configuración puede cambiarse desde el navegador de su dispositivo.

Para ciertos fines, los intereses legítimos pueden ser considerados por encima del consentimiento. Puede leer más sobre ello en nuestra Política de Privacidad y Cookies.